[Date Prev][Date Next][Thread Prev][Thread Next] - [Date Index][Thread Index][Author Index]
2 Line ISS Keps 9-18
- Subject: [sarex] 2 Line ISS Keps 9-18
- From: "Dave Larsen PhD" <doc@xxxxxxxxxxx>
- Date: Fri, 17 Sep 2004 20:20:17 -0700
ISS
1 25544U 98067A 04262.08677506 .00022490 00000-0 18885-3 0 7126
2 25544 51.6348 211.5593 0005349 160.2217 256.4287 15.69806593332919
----
Via the sarex mailing list at AMSAT.ORG courtesy of AMSAT-NA.
To unsubscribe, send "unsubscribe sarex" to Majordomo@amsat.org
AMSAT Home